Torna al catalogo

COSMOS 1275 DEB

AttivoPO
NORAD 13468·DEBRIS·🇷🇺 Russia

Lanciato Jun 4, 1981 da Plesetsk Cosmodrome

Loading…

Prossimi Passaggi (prossime 24 ore)

TLE

AggiornatoSource: Space-Track

Epoca: Sep 14, 2026, 11:29 UTC

1 13468U 81053FQ  26257.47878825  .00000910  00000-0  67558-3 0  9994
2 13468  82.6999  78.0907 0061757 294.6944  93.5343 13.93305280229501

Traccia COSMOS 1275 DEB in tempo reale con AllMySat

Download on the App Store